Weather History for Tyler, TX

Change the Weather History Date:

Friday, April 26, 2013

  Actual Average Record
Temperature  
Mean Temperature 68 °F 68 °F  
Max Temperature 77 °F 78 °F 91 °F (1925)
Min Temperature 58 °F 58 °F 38 °F (1910)
Degree Days  
Heating Degree Days 0 1  
Month to date heating degree days 132 93  
Since 1 July heating degree days 1970 2258  
Cooling Degree Days 3 4  
Month to date cooling degree days 70 61  
Year to date cooling degree days 93 94  
Growing Degree Days 16 (Base 50)    
Moisture  
Dew Point 55 °F    
Average Humidity 61    
Maximum Humidity 73    
Minimum Humidity 49    
Precipitation  
Precipitation T in 0.12 in 3.52 in (1915)
Month to date precipitation 2.21 2.66  
Year to date precipitation 10.56 13.65  
Snow  
Snow 0.00 in - - ()
Month to date snowfall 0.0  
Since 1 July snowfall 1.0  
Snow Depth 0.00 in    
Sea Level Pressure  
Sea Level Pressure 30.14 in    
Wind  
Wind Speed 10 mph (SSE)    
Max Wind Speed 17 mph    
Max Gust Speed 22 mph    
Visibility 10 miles    
Events Rain    
T = Trace of Precipitation, MM = Missing Value Source: NWS Daily Summary

Daily Weather History Graph

Daily Weather History Graph

Search for Another Location

Airport:

Trip Planner

Search our weather history database for the weather conditions in past years. The results will help you decide how hot, cold, wet, or windy it might be!

Date:

Astronomy

Apr. 26, 2013 Rise Set
Actual Time 6:39 AM CDT 7:59 PM CDT
Civil Twilight 6:14 AM CDT 8:25 PM CDT
Nautical Twilight 5:43 AM CDT 8:56 PM CDT
Astronomical Twilight 5:11 AM CDT 9:28 PM CDT
Moon 9:18 PM CDT (4/26) 7:11 AM CDT (4/26)
Length of Visible Light 14h 11m
Length of Day
13h 19m
Full, 99% of the Moon is Illuminated
Apr 26
Full
May 2
Last Quarter
May 9
New
May 17
First Quarter
May 24
Full

Hourly Weather History & Observations

Time (CDT) Temp. Dew Point Humidity Pressure Visibility Wind Dir Wind Speed Gust Speed Precip Events Conditions
12:53 AM 60.1 °F 41.0 °F 49% 30.20 in 10.0 mi SE 10.4 mph - N/A   Clear
2:53 AM 57.9 °F 41.0 °F 53% 30.17 in 10.0 mi SSE 8.1 mph - N/A   Clear
3:53 AM 59.0 °F 42.1 °F 53% 30.19 in 10.0 mi SE 3.5 mph - N/A   Overcast
4:53 AM 60.1 °F 42.1 °F 51% 30.17 in 10.0 mi East 10.4 mph - N/A   Overcast
5:18 AM 60.8 °F 42.8 °F 52% 30.17 in 10.0 mi ESE 9.2 mph - N/A   Overcast
5:29 AM 60.8 °F 42.8 °F 52% 30.17 in 10.0 mi ESE 6.9 mph - N/A   Overcast
5:53 AM 60.1 °F 43.0 °F 53% 30.16 in 10.0 mi ESE 6.9 mph - N/A   Overcast
6:53 AM 60.1 °F 44.1 °F 55% 30.17 in 10.0 mi ESE 8.1 mph - N/A   Overcast
7:53 AM 61.0 °F 45.0 °F 56% 30.18 in 10.0 mi SE 8.1 mph - N/A   Overcast
8:08 AM 60.8 °F 46.4 °F 59% 30.20 in 10.0 mi ESE 8.1 mph - N/A   Overcast
8:53 AM 62.1 °F 46.9 °F 58% 30.20 in 10.0 mi SE 8.1 mph - N/A   Overcast
9:53 AM 61.0 °F 52.0 °F 72% 30.20 in 10.0 mi SE 9.2 mph - N/A   Overcast
10:53 AM 59.0 °F 55.9 °F 90% 30.21 in 3.0 mi SE 6.9 mph - 0.00 in Rain Light Rain
11:50 AM 66.2 °F 59.0 °F 78% 30.19 in 10.0 mi SSE 13.8 mph - 0.00 in   Overcast
11:53 AM 66.9 °F 59.0 °F 76% 30.19 in 10.0 mi SSE 12.7 mph - 0.00 in   Overcast
12:19 PM 66.2 °F 59.0 °F 78% 30.21 in 10.0 mi SW 4.6 mph - N/A   Overcast
12:46 PM 71.6 °F 60.8 °F 69% 30.19 in 10.0 mi South 9.2 mph - N/A   Overcast
12:53 PM 73.0 °F 62.1 °F 68% 30.17 in 10.0 mi South 9.2 mph - N/A   Overcast
1:53 PM 75.9 °F 63.0 °F 64% 30.14 in 10.0 mi SSW 11.5 mph 19.6 mph N/A   Overcast
2:22 PM 75.2 °F 62.6 °F 65% 30.15 in 10.0 mi South 10.4 mph - N/A   Overcast
2:53 PM 75.0 °F 62.1 °F 64% 30.12 in 10.0 mi South 10.4 mph - N/A   Overcast
3:53 PM 75.9 °F 63.0 °F 64% 30.10 in 10.0 mi SSE 11.5 mph - N/A   Overcast
4:53 PM 75.9 °F 63.0 °F 64% 30.08 in 10.0 mi SE 11.5 mph - N/A   Overcast
5:53 PM 75.9 °F 63.0 °F 64% 30.04 in 10.0 mi SSE 12.7 mph - N/A   Partly Cloudy
6:53 PM 75.0 °F 63.0 °F 66% 30.04 in 10.0 mi SSE 8.1 mph - N/A   Mostly Cloudy
7:53 PM 73.9 °F 63.0 °F 68% 30.03 in 10.0 mi SSE 5.8 mph - N/A   Clear
8:53 PM 73.9 °F 63.0 °F 68% 30.04 in 10.0 mi SSE 8.1 mph - N/A   Mostly Cloudy
9:53 PM 73.0 °F 62.1 °F 68% 30.04 in 10.0 mi SSE 11.5 mph - N/A   Mostly Cloudy
10:53 PM 73.0 °F 63.0 °F 71% 30.06 in 10.0 mi SSE 12.7 mph - N/A   Mostly Cloudy
11:53 PM 72.0 °F 63.0 °F 73% 30.07 in 10.0 mi South 12.7 mph - N/A   Scattered Clouds